Regional Weather Roundup
Issued by NWS

Home | Current Version | Previous Version | Graphics & Text | Print | Product List | Glossary On
Versions: 1 2 3 4 5 6 7 8 9 10 11 12 13 14 15 16 17 18 19 20 21 22 23 24 25 26 27 28 29 30 31 32 33 34 35 36 37 38 39 40 41 42 43 44 45 46 47 48 49 50
000
ASUS43 KFSD 211810
RWRSD

WEATHER ROUNDUP FOR SOUTH DAKOTA
NATIONAL WEATHER SERVICE SIOUX FALLS SD
100 PM CDT THU AUG 21 2014

NOTE: "FAIR" INDICATES FEW OR NO CLOUDS BELOW 12,000 FEET WITH NO
SIGNIFICANT WEATHER AND/OR OBSTRUCTIONS TO VISIBILITY.


SDZ001>005-009-010-012>017-211900-
NORTHWEST AND NORTH CENTRAL SOUTH DAKOTA

CITY           SKY/WX    TMP DP  RH WIND       PRES   REMARKS
BUFFALO          N/A     79  56  45 VRB6      29.90S
FAITH            N/A     81  58  45 NW12      29.92S
MOBRIDGE       SUNNY     78  65  63 NW14      29.84R
$$

SDZ012>016-024>037-041>051-057-063-072>074-211900-
SOUTHWEST AND SOUTH CENTRAL SOUTH DAKOTA

CITY           SKY/WX    TMP DP  RH WIND       PRES   REMARKS
RAPID CTY ARPT   N/A     78  57  48 VRB5      29.97F
PIERRE         MOSUNNY   81  63  54 VRB5      29.85F
CUSTER         MOSUNNY   72  50  45 S9G20     30.09S
ELLSWORTH AFB  SUNNY     78  54  43 VRB2      29.97F
PHILIP         SUNNY     84  55  36 N9        29.90F
PINE RIDGE     SUNNY     80  57  45 N6        29.98F
WINNER         FAIR      82  64  54 NW13      29.87F
$$

SDZ004>011-016>023-039-040-211900-
NORTHEAST SOUTH DAKOTA

CITY           SKY/WX    TMP DP  RH WIND       PRES   REMARKS
ABERDEEN       CLOUDY    79  68  69 NW8G17    29.79R
WATERTOWN      SUNNY     80  69  69 W13       29.79S
SISSETON         N/A     80  71  74 N6        29.75S
$$

SDZ017-020-022-023-036>040-048>070-211900-
SOUTHEAST SOUTH DAKOTA

CITY           SKY/WX    TMP DP  RH WIND       PRES   REMARKS
SIOUX FALLS    PTSUNNY   85  76  74 S6        29.77S
HURON          MOSUNNY   83  66  56 W9        29.79F
CHAMBERLAIN    SUNNY     79  67  67 N9        29.84F
MITCHELL       MOSUNNY   83  72  69 NW10      29.80S
YANKTON        PTSUNNY   82  75  78 SW6       29.78S
$$

ABBREVIATIONS USED IN REMARKS
   TC - TEMPERATURE IN CELSIUS
  WCI - WIND CHILL INDEX
   HX - HEAT INDEX
  VSB - VISIBILITY



USA.gov is the U.S. government's official web portal to all federal, state and local government web resources and services.